"Pseudo-MPEC" for MP95335

Created 2026 Aug 11 17:35:06 UT using Find_Orb

Click here for an explanation of pseudo-MPECs

 
 Astrometry: 
     MP95335* C2026 08 06.74782423 24 29.776+04 29 27.54   ~8BFK 22.05gWNEOCPO18
     MP95335  C2026 08 06.81607623 24 31.661+04 29 21.32   ~8BFK 21.26rWNEOCPO18
     MP95335  C2026 08 09.83405123 25 59.826+04 22 22.26   ~8BFK 21.85gWNEOCPO18
     MP95335  C2026 08 09.89464123 26 01.020+04 22 11.04   ~8BFK 21.41rWNEOCPO18
     MP95335  C2026 08 10.74748823 26 22.513+04 19 24.87   ~8BFK 21.78gWNEOCPO18
     MP95335  C2026 08 10.84932923 26 24.285+04 19 03.95   ~8BFK 21.31rWNEOCPO18

Station data:
(O18) WFST, Lenghu  (N38.607601 E93.895220)  China.  Observers K. Yan, Z. Q.
   Li, J. Z. Zhu, N. Jiang, Z. Y. Liu. Measurers B. Li, H. B. Zhao, Z. J. Xu,
   G. T. Zhaori. 2.5-m f/2.48 reflector + CCD.

Orbital elements:  MP95335
   Perihelion 2026 Jul 14.803244 +/- 2.56 TT = 19:16:40.2 (JD 2461236.303244)
Epoch 2026 Aug 10.0 TT = JDT 2461262.5   Earth MOID: 0.4112      AutoNEOCP
M   8.466274283 +/- 0.47            (J2000 ecliptic)
n   0.323180254 +/- 0.016           Peri.  128.605267 +/- 2.3
a   2.103001119 +/- 0.0693          Node   182.688194 +/- 0.6
e   0.32519213 +/- 0.0215           Incl.    4.519695 +/- 0.07
P   3.04971                H 21.07  G  0.15   U 10.0
q 1.419121702 +/- 0.00658    Q 2.786880535 +/- 0.137
From 6 observations 2026 Aug. 6-10; mean residual 0".06
Residuals in arcseconds: 
260806 O18  .07+  .07-    260809 O18  .02-  .06+    260810 O18  .04-  .07-    
260806 O18  .07-  .07+    260809 O18  .03+  .06-    260810 O18  .03+  .06+    

Ephemerides (geocentric):
Date (UTC) HH   RA             Dec           delta  r     elong  mag " sig PA
---- --------  ------------   ------------  ------ ------ -----  --- --------
2026 08 11 18  23 26 44.037   +04 15 53.97  .48828 1.4375 144.0 21.4 1.00  41
2026 08 11 19  23 26 44.897   +04 15 44.17  .48820 1.4376 144.1 21.4 1.04  40
2026 08 11 20  23 26 45.752   +04 15 34.33  .48812 1.4376 144.1 21.4 1.09  40
2026 08 11 21  23 26 46.604   +04 15 24.44  .48805 1.4377 144.1 21.4 1.14  40
2026 08 11 22  23 26 47.451   +04 15 14.50  .48797 1.4378 144.2 21.4 1.18  40
2026 08 11 23  23 26 48.294   +04 15 04.51  .48789 1.4378 144.2 21.4 1.23  40
2026 08 12 00  23 26 49.132   +04 14 54.47  .48781 1.4379 144.3 21.4 1.28  39
2026 08 12 01  23 26 49.966   +04 14 44.39  .48773 1.4379 144.3 21.4 1.33  39
2026 08 12 02  23 26 50.796   +04 14 34.26  .48766 1.4380 144.3 21.4 1.38  39
2026 08 12 03  23 26 51.622   +04 14 24.08  .48758 1.4380 144.4 21.4 1.44  39
2026 08 12 04  23 26 52.443   +04 14 13.85  .48750 1.4381 144.4 21.4 1.49  39
2026 08 12 05  23 26 53.261   +04 14 03.57  .48743 1.4381 144.4 21.4 1.54  39
2026 08 12 06  23 26 54.074   +04 13 53.25  .48735 1.4382 144.5 21.4 1.60  38
2026 08 12 07  23 26 54.882   +04 13 42.87  .48727 1.4382 144.5 21.4 1.65  38
2026 08 12 08  23 26 55.687   +04 13 32.45  .48720 1.4383 144.6 21.4 1.70  38
2026 08 12 09  23 26 56.487   +04 13 21.99  .48712 1.4384 144.6 21.4 1.76  38
2026 08 12 10  23 26 57.283   +04 13 11.47  .48704 1.4384 144.6 21.4 1.82  38
2026 08 12 11  23 26 58.074   +04 13 00.91  .48697 1.4385 144.7 21.4 1.87  38
2026 08 12 12  23 26 58.862   +04 12 50.29  .48689 1.4385 144.7 21.4 1.93  38
2026 08 12 13  23 26 59.645   +04 12 39.64  .48682 1.4386 144.7 21.4 1.99  38
2026 08 12 14  23 27 00.424   +04 12 28.93  .48674 1.4386 144.8 21.4 2.05  38
2026 08 12 15  23 27 01.198   +04 12 18.17  .48667 1.4387 144.8 21.4 2.11  38
2026 08 12 16  23 27 01.969   +04 12 07.37  .48659 1.4387 144.9 21.4 2.17  38
2026 08 12 17  23 27 02.735   +04 11 56.52  .48652 1.4388 144.9 21.4 2.23  38
2026 08 12 18  23 27 03.497   +04 11 45.62  .48644 1.4389 144.9 21.4 2.30  37
2026 08 12 19  23 27 04.255   +04 11 34.67  .48637 1.4389 145.0 21.4 2.36  37
2026 08 12 20  23 27 05.008   +04 11 23.68  .48630 1.4390 145.0 21.4 2.42  37
2026 08 12 21  23 27 05.758   +04 11 12.64  .48622 1.4390 145.1 21.4 2.49  37
2026 08 12 22  23 27 06.503   +04 11 01.55  .48615 1.4391 145.1 21.4 2.55  37
2026 08 12 23  23 27 07.244   +04 10 50.41  .48608 1.4391 145.1 21.4 2.62  37
2026 08 13 00  23 27 07.980   +04 10 39.23  .48600 1.4392 145.2 21.4 2.68  37
2026 08 13 01  23 27 08.713   +04 10 27.99  .48593 1.4393 145.2 21.4 2.75  37
2026 08 13 02  23 27 09.441   +04 10 16.71  .48586 1.4393 145.2 21.4 2.82  37
2026 08 13 03  23 27 10.165   +04 10 05.39  .48578 1.4394 145.3 21.4 2.89  37
2026 08 13 04  23 27 10.884   +04 09 54.01  .48571 1.4394 145.3 21.4 2.96  37
2026 08 13 05  23 27 11.600   +04 09 42.59  .48564 1.4395 145.4 21.4 3.03  37
2026 08 13 06  23 27 12.311   +04 09 31.12  .48557 1.4395 145.4 21.4 3.10  37
2026 08 13 07  23 27 13.019   +04 09 19.60  .48550 1.4396 145.4 21.4 3.17  37
2026 08 13 08  23 27 13.722   +04 09 08.04  .48542 1.4396 145.5 21.4 3.24  37
2026 08 13 09  23 27 14.420   +04 08 56.42  .48535 1.4397 145.5 21.4 3.32  37
2026 08 13 10  23 27 15.115   +04 08 44.76  .48528 1.4398 145.6 21.4 3.39  37
2026 08 13 11  23 27 15.805   +04 08 33.06  .48521 1.4398 145.6 21.4 3.46  37
2026 08 13 12  23 27 16.492   +04 08 21.30  .48514 1.4399 145.6 21.4 3.54  37
2026 08 13 13  23 27 17.174   +04 08 09.50  .48507 1.4399 145.7 21.4 3.61  37
2026 08 13 14  23 27 17.851   +04 07 57.65  .48500 1.4400 145.7 21.4 3.69  37
2026 08 13 15  23 27 18.525   +04 07 45.75  .48493 1.4401 145.7 21.4 3.77  37
2026 08 13 16  23 27 19.195   +04 07 33.81  .48486 1.4401 145.8 21.4 3.85  37
2026 08 13 17  23 27 19.860   +04 07 21.82  .48479 1.4402 145.8 21.4 3.93  37